| time (UTC) | temp C | wind direction | speed KPH | gust KPH | rain 1hr cm | rain 24hr cm | rain mn cm | humidity % | barometer mb |
| 20260505101541 | 1 | 267 | 1.6 | 11.3 | 0.00 | 0.00 | 0.00 | 69 | 1012.8 |
| 20260505100036 | 1 | 261 | 0.0 | 14.5 | 0.00 | 0.00 | 0.00 | 69 | 1012.6 |
| 20260505100027 | 1 | 261 | 0.0 | 14.5 | 0.00 | 0.00 | 0.00 | 69 | 1005.4 |
| 20260505094539 | 1 | 0 | 3.2 | 12.9 | 0.00 | 0.00 | 0.00 | 68 | 1012.7 |
| 20260505094534 | 1 | 261 | 3.2 | 12.9 | 0.00 | 0.00 | 0.00 | 69 | 1005.4 |
| 20260505093043 | 1 | 275 | 0.0 | 9.7 | 0.00 | 0.00 | 0.00 | 68 | 1012.3 |
| 20260505093024 | 1 | 275 | 1.6 | 9.7 | 0.00 | 0.00 | 0.00 | 68 | 1005.0 |
| 20260505091537 | 1 | 0 | 0.0 | 6.4 | 0.00 | 0.00 | 0.00 | 67 | 1012.0 |
| 20260505091522 | 1 | 292 | 0.0 | 6.4 | 0.00 | 0.00 | 0.00 | 67 | 1004.7 |
| 20260505090050 | 1 | 292 | 1.6 | 8.0 | 0.00 | 0.00 | 0.00 | 66 | 1011.9 |
| 20260505090021 | 1 | 292 | 1.6 | 8.0 | 0.00 | 0.00 | 0.00 | 66 | 1004.6 |
| 20260505084540 | 1 | 294 | 1.6 | 11.3 | 0.00 | 0.00 | 0.00 | 66 | 1011.7 |
| 20260505084517 | 1 | 294 | 3.2 | 11.3 | 0.00 | 0.00 | 0.00 | 66 | 1004.5 |
| 20260505083045 | 1 | 0 | 0.0 | 4.8 | 0.00 | 0.00 | 0.00 | 65 | 1011.5 |
| 20260505083021 | 1 | 294 | 0.0 | 4.8 | 0.00 | 0.00 | 0.00 | 65 | 1004.2 |
| 20260505081545 | 2 | 0 | 1.6 | 8.0 | 0.00 | 0.00 | 0.00 | 64 | 1011.4 |
| 20260505081515 | 2 | 296 | 1.6 | 8.0 | 0.00 | 0.00 | 0.00 | 65 | 1004.2 |
| 20260505080042 | 1 | 0 | 0.0 | 8.0 | 0.00 | 0.00 | 0.00 | 64 | 1011.6 |
| 20260505080016 | 1 | 297 | 0.0 | 4.8 | 0.00 | 0.00 | 0.00 | 65 | 1004.2 |
| 20260505074543 | 2 | 0 | 0.0 | 6.4 | 0.00 | 0.00 | 0.00 | 63 | 1011.6 |
| 20260505074512 | 2 | 284 | 0.0 | 6.4 | 0.00 | 0.00 | 0.00 | 64 | 1004.4 |
| 20260505073038 | 2 | 0 | 0.0 | 4.8 | 0.00 | 0.00 | 0.00 | 63 | 1011.6 |
| 20260505073009 | 2 | 284 | 0.0 | 4.8 | 0.00 | 0.00 | 0.00 | 63 | 1004.3 |
| 20260505071539 | 2 | 0 | 0.0 | 3.2 | 0.00 | 0.00 | 0.00 | 63 | 1011.7 |
| 20260505071525 | 2 | 284 | 0.0 | 3.2 | 0.00 | 0.00 | 0.00 | 63 | 1004.3 |
| 20260505070045 | 2 | 0 | 0.0 | 4.8 | 0.00 | 0.00 | 0.00 | 63 | 1011.7 |
| 20260505070008 | 2 | 284 | 0.0 | 4.8 | 0.00 | 0.00 | 0.00 | 64 | 1004.3 |
| 20260505064552 | 1 | 0 | 0.0 | 3.2 | 0.00 | 0.00 | 0.00 | 64 | 1011.7 |
| 20260505064508 | 1 | 285 | 0.0 | 3.2 | 0.00 | 0.00 | 0.00 | 64 | 1004.3 |
| 20260505063046 | 2 | 0 | 0.0 | 0.0 | 0.00 | 0.00 | 0.00 | 63 | 1011.8 |
| 20260505063002 | 2 | 285 | 0.0 | 0.0 | 0.00 | 0.00 | 0.00 | 63 | 1004.3 |
| 20260505061600 | 2 | 285 | 0.0 | 3.2 | 0.00 | 0.00 | 0.00 | 59 | 1004.5 |
| 20260505061542 | 2 | 0 | 0.0 | 3.2 | 0.00 | 0.00 | 0.00 | 58 | 1011.9 |
| 20260505060057 | 3 | 284 | 0.0 | 0.0 | 0.00 | 0.00 | 0.00 | 58 | 1004.6 |
| 20260505060039 | 3 | 0 | 0.0 | 0.0 | 0.00 | 0.00 | 0.00 | 57 | 1012.0 |
| 20260505054555 | 3 | 284 | 0.0 | 4.8 | 0.00 | 0.00 | 0.00 | 56 | 1004.4 |
| 20260505054537 | 3 | 284 | 0.0 | 4.8 | 0.00 | 0.00 | 0.00 | 56 | 1011.9 |
| 20260505053052 | 3 | 285 | 0.0 | 11.3 | 0.00 | 0.00 | 0.00 | 54 | 1004.2 |
| 20260505053035 | 3 | 285 | 1.6 | 12.9 | 0.00 | 0.00 | 0.00 | 54 | 1011.7 |
| 20260505051559 | 4 | 292 | 6.4 | 19.3 | 0.00 | 0.00 | 0.00 | 54 | 1003.9 |
| 20260505051542 | 4 | 292 | 3.2 | 19.3 | 0.00 | 0.00 | 0.00 | 53 | 1011.5 |
| 20260505041540 | 5 | 282 | 9.7 | 27.4 | 0.00 | 0.00 | 0.00 | 50 | 1003.8 |
| 20260505041537 | 5 | 314 | 9.7 | 27.4 | 0.00 | 0.00 | 0.00 | 50 | 1011.4 |
| 20260505040041 | 5 | 306 | 4.8 | 19.3 | 0.00 | 0.00 | 0.00 | 50 | 1011.4 |
| 20260505040038 | 5 | 319 | 4.8 | 19.3 | 0.00 | 0.00 | 0.00 | 50 | 1003.7 |
| 20260505034542 | 6 | 306 | 9.7 | 25.7 | 0.00 | 0.00 | 0.00 | 49 | 1011.2 |
| 20260505034535 | 6 | 306 | 9.7 | 25.7 | 0.00 | 0.00 | 0.00 | 49 | 1003.6 |
| 20260505033038 | 6 | 315 | 4.8 | 24.1 | 0.00 | 0.00 | 0.00 | 50 | 1010.9 |
| 20260505033032 | 6 | 315 | 4.8 | 24.1 | 0.00 | 0.00 | 0.00 | 50 | 1003.5 |
| 20260505031536 | 6 | 333 | 9.7 | 32.2 | 0.00 | 0.00 | 0.00 | 50 | 1010.8 |
| 20260505031531 | 6 | 334 | 11.3 | 27.4 | 0.00 | 0.00 | 0.00 | 51 | 1003.3 |
| 20260505030042 | 6 | 343 | 12.9 | 35.4 | 0.00 | 0.00 | 0.00 | 51 | 1010.7 |
| 20260505030028 | 6 | 337 | 11.3 | 35.4 | 0.00 | 0.00 | 0.00 | 51 | 1003.2 |
| 20260505024545 | 6 | 277 | 8.0 | 27.4 | 0.00 | 0.00 | 0.00 | 51 | 1010.5 |
| 20260505024524 | 6 | 277 | 9.7 | 25.7 | 0.00 | 0.00 | 0.00 | 52 | 1003.0 |
| 20260505023046 | 7 | 290 | 8.0 | 27.4 | 0.00 | 0.00 | 0.00 | 51 | 1010.3 |
| 20260505023024 | 7 | 292 | 11.3 | 27.4 | 0.00 | 0.00 | 0.00 | 51 | 1002.8 |
| 20260505021544 | 7 | 298 | 9.7 | 30.6 | 0.00 | 0.00 | 0.00 | 50 | 1010.0 |
| 20260505021527 | 7 | 298 | 9.7 | 30.6 | 0.00 | 0.00 | 0.00 | 51 | 1002.4 |
| 20260505020037 | 7 | 296 | 14.5 | 27.4 | 0.00 | 0.00 | 0.00 | 49 | 1009.8 |
| 20260505020016 | 7 | 303 | 16.1 | 27.4 | 0.00 | 0.00 | 0.00 | 50 | 1002.1 |
| 20260505014542 | 8 | 298 | 8.0 | 25.7 | 0.00 | 0.00 | 0.00 | 46 | 1009.4 |
| 20260505014516 | 8 | 298 | 9.7 | 22.5 | 0.00 | 0.00 | 0.00 | 47 | 1001.7 |
| 20260505013043 | 8 | 307 | 11.3 | 37.0 | 0.00 | 0.00 | 0.00 | 44 | 1009.2 |
| 20260505013014 | 8 | 303 | 12.9 | 37.0 | 0.00 | 0.00 | 0.00 | 45 | 1001.4 |
| 20260505011539 | 8 | 318 | 4.8 | 25.7 | 0.00 | 0.00 | 0.00 | 45 | 1009.0 |
| 20260505011513 | 8 | 319 | 4.8 | 24.1 | 0.00 | 0.00 | 0.00 | 46 | 1001.1 |
| 20260505010045 | 9 | 352 | 12.9 | 33.8 | 0.00 | 0.00 | 0.00 | 44 | 1008.5 |
| 20260505010010 | 9 | 318 | 12.9 | 33.8 | 0.00 | 0.00 | 0.00 | 45 | 1000.7 |
| 20260505004539 | 10 | 296 | 12.9 | 27.4 | 0.00 | 0.00 | 0.00 | 41 | 1008.1 |
| 20260505004516 | 10 | 242 | 11.3 | 27.4 | 0.00 | 0.00 | 0.00 | 42 | 1000.3 |
| 20260505003037 | 11 | 331 | 9.7 | 22.5 | 0.00 | 0.00 | 0.00 | 41 | 1007.8 |
| 20260505003009 | 11 | 331 | 9.7 | 22.5 | 0.00 | 0.00 | 0.00 | 42 | 1000.1 |
| 20260505001547 | 11 | 312 | 11.3 | 32.2 | 0.00 | 0.00 | 0.00 | 42 | 1007.6 |
| 20260505001509 | 11 | 309 | 11.3 | 32.2 | 0.00 | 0.00 | 0.00 | 42 | 999.8 |
| 20260505000041 | 11 | 284 | 11.3 | 32.2 | 0.00 | 0.00 | 0.00 | 42 | 1007.4 |
| 20260505000016 | 11 | 259 | 12.9 | 32.2 | 0.00 | 0.00 | 0.00 | 42 | 999.5 |
| 20260504234543 | 12 | 303 | 14.5 | 33.8 | 0.00 | 0.00 | 0.00 | 38 | 1007.2 |
| 20260504234508 | 12 | 286 | 14.5 | 33.8 | 0.00 | 0.00 | 0.00 | 39 | 999.4 |
| 20260504233039 | 12 | 246 | 11.3 | 33.8 | 0.00 | 0.00 | 0.00 | 37 | 1007.0 |
| 20260504233007 | 12 | 261 | 11.3 | 33.8 | 0.00 | 0.00 | 0.00 | 37 | 999.2 |
| 20260504231555 | 13 | 219 | 16.1 | 37.0 | 0.00 | 0.00 | 0.00 | 36 | 1006.8 |
| 20260504231509 | 13 | 267 | 16.1 | 37.0 | 0.00 | 0.00 | 0.00 | 37 | 999.0 |
| 20260504230037 | 13 | 272 | 16.1 | 32.2 | 0.00 | 0.00 | 0.00 | 34 | 1006.6 |
| 20260504230006 | 13 | 248 | 17.7 | 30.6 | 0.00 | 0.00 | 0.00 | 34 | 998.7 |
| 20260504224539 | 13 | 294 | 11.3 | 37.0 | 0.00 | 0.00 | 0.00 | 34 | 1006.4 |
| 20260504224506 | 13 | 279 | 11.3 | 37.0 | 0.00 | 0.00 | 0.00 | 34 | 998.4 |
| 20260504223040 | 14 | 280 | 16.1 | 38.6 | 0.00 | 0.00 | 0.00 | 34 | 1006.2 |
| 20260504223008 | 14 | 274 | 16.1 | 38.6 | 0.00 | 0.00 | 0.00 | 35 | 998.1 |
| 20260504221543 | 15 | 232 | 14.5 | 35.4 | 0.00 | 0.00 | 0.00 | 34 | 1005.7 |
| 20260504221506 | 15 | 326 | 14.5 | 35.4 | 0.00 | 0.00 | 0.00 | 35 | 997.6 |
| 20260504220040 | 15 | 243 | 16.1 | 35.4 | 0.00 | 0.00 | 0.00 | 35 | 1005.4 |
| 20260504220004 | 15 | 309 | 16.1 | 32.2 | 0.00 | 0.00 | 0.00 | 35 | 997.3 |
| 20260504214539 | 15 | 309 | 12.9 | 43.5 | 0.00 | 0.00 | 0.00 | 36 | 1005.2 |
| 20260504214506 | 15 | 256 | 14.5 | 41.8 | 0.00 | 0.00 | 0.00 | 37 | 997.2 |
| 20260504213036 | 16 | 263 | 4.8 | 30.6 | 0.00 | 0.00 | 0.00 | 41 | 1005.0 |
| 20260504213004 | 16 | 264 | 4.8 | 29.0 | 0.00 | 0.00 | 0.00 | 44 | 997.0 |
| 20260504211542 | 15 | 288 | 16.1 | 41.8 | 0.00 | 0.00 | 0.00 | 39 | 1004.9 |
| 20260504211504 | 15 | 294 | 16.1 | 41.8 | 0.00 | 0.00 | 0.00 | 39 | 996.8 |
| 20260504210100 | 16 | 241 | 16.1 | 33.8 | 0.00 | 0.00 | 0.00 | 35 | 1004.7 |
| 20260504204547 | 17 | 223 | 12.9 | 29.0 | 0.00 | 0.00 | 0.00 | 36 | 1004.6 |
| 20260504204502 | 17 | 327 | 14.5 | 29.0 | 0.00 | 0.00 | 0.00 | 37 | 996.5 |
| 20260504203044 | 16 | 196 | 9.7 | 45.1 | 0.00 | 0.00 | 0.00 | 40 | 1004.6 |
| 20260504203004 | 16 | 254 | 11.3 | 35.4 | 0.00 | 0.00 | 0.00 | 40 | 996.5 |
| 20260504201545 | 16 | 207 | 16.1 | 41.8 | 0.00 | 0.00 | 0.00 | 38 | 1004.5 |
| 20260504201501 | 16 | 250 | 14.5 | 40.2 | 0.00 | 0.00 | 0.00 | 39 | 996.6 |
| 20260504200109 | 16 | 196 | 20.9 | 37.0 | 0.00 | 0.00 | 0.00 | 37 | 996.4 |
| 20260504200036 | 16 | 252 | 17.7 | 40.2 | 0.00 | 0.00 | 0.00 | 36 | 1004.6 |
| 20260504194611 | 16 | 175 | 16.1 | 38.6 | 0.00 | 0.00 | 0.00 | 38 | 996.2 |
| 20260504194559 | 16 | 298 | 17.7 | 38.6 | 0.00 | 0.00 | 0.00 | 37 | 1004.3 |
| 20260504193118 | 17 | 241 | 12.9 | 30.6 | 0.00 | 0.00 | 0.00 | 36 | 996.0 |
| 20260504193040 | 17 | 242 | 16.1 | 30.6 | 0.00 | 0.00 | 0.00 | 35 | 1004.0 |
| 20260504191605 | 17 | 246 | 11.3 | 46.7 | 0.00 | 0.00 | 0.00 | 39 | 995.9 |
| 20260504191546 | 17 | 292 | 12.9 | 48.3 | 0.00 | 0.00 | 0.00 | 37 | 1003.9 |
| 20260504190116 | 17 | 242 | 19.3 | 35.4 | 0.00 | 0.00 | 0.00 | 38 | 995.9 |
| 20260504190045 | 17 | 257 | 20.9 | 35.4 | 0.00 | 0.00 | 0.00 | 37 | 1003.7 |
| 20260504184626 | 17 | 237 | 19.3 | 33.8 | 0.00 | 0.00 | 0.00 | 35 | 995.8 |
| 20260504184540 | 17 | 248 | 17.7 | 35.4 | 0.00 | 0.00 | 0.00 | 34 | 1003.7 |
| 20260504183058 | 17 | 298 | 11.3 | 35.4 | 0.00 | 0.00 | 0.00 | 34 | 995.8 |
| 20260504183035 | 17 | 263 | 12.9 | 38.6 | 0.00 | 0.00 | 0.00 | 33 | 1003.5 |
| 20260504181558 | 16 | 298 | 14.5 | 48.3 | 0.00 | 0.00 | 0.00 | 33 | 995.8 |
| 20260504181544 | 16 | 232 | 20.9 | 48.3 | 0.00 | 0.00 | 0.00 | 32 | 1003.7 |
| 20260504180106 | 17 | 263 | 22.5 | 43.5 | 0.00 | 0.00 | 0.00 | 30 | 1003.4 |
| 20260504180056 | 17 | 269 | 22.5 | 41.8 | 0.00 | 0.00 | 0.00 | 30 | 995.6 |
| 20260504174555 | 17 | 192 | 14.5 | 37.0 | 0.00 | 0.00 | 0.00 | 33 | 995.0 |
| 20260504174538 | 17 | 254 | 12.9 | 37.0 | 0.00 | 0.00 | 0.00 | 30 | 1002.9 |
| 20260504173056 | 17 | 264 | 19.3 | 35.4 | 0.00 | 0.00 | 0.00 | 32 | 995.1 |
| 20260504173038 | 17 | 265 | 19.3 | 35.4 | 0.00 | 0.00 | 0.00 | 32 | 1003.0 |
| 20260504171557 | 17 | 217 | 12.9 | 33.8 | 0.00 | 0.00 | 0.00 | 33 | 995.2 |
| 20260504171536 | 17 | 283 | 11.3 | 38.6 | 0.00 | 0.00 | 0.00 | 34 | 1003.0 |